Theta_e
315 313 313 312 312 312 312 312 310 309 310 311 311 311 311 311 310 310 309 309 308 308 308 308 308 308 307 308 307 307 307 306 306 305 305 305 306 306 306 306 305 305 304 304 304 304 304 304 304 305 305 305 304 304 304 304 304 305 305 305 305 304 304 303 302 302 301 301 301
313 312 311 308 308 310 312 311 310 310 310 312 312 312 311 311 310 309 309 308 308 308 308 308 308 307 308 307 307 306 306 306 306 306 305 305 306 306 306 305 305 305 304 304 304 303 303 303 304 304 305 305 305 304 304 304 304 304 304 304 304 303 303 302 301 301 300 300 300
313 312 312 313 313 313 312 310 310 310 310 311 312 312 311 310 310 309 309 308 309 309 308 307 307 307 307 307 306 306 306 306 306 306 306 306 306 306 306 305 304 304 304 304 304 304 304 304 303 303 304 304 304 304 304 304 304 304 304 303 303 302 301 301 300 299 299 299 298
315 315 314 314 313 311 310 310 310 310 310 310 311 311 310 310 309 309 308 308 308 308 307 307 306 306 306 306 306 306 306 305 305 306 306 306 305 305 305 304 304 304 304 304 304 304 304 304 304 304 304 304 304 304 304 304 304 304 303 303 302 301 300 299 299 299 299 298 298
315 315 314 312 311 310 309 309 309 309 309 310 310 310 310 309 309 308 308 307 307 307 307 306 306 305 305 306 306 306 306 306 304 304 305 305 304 304 304 304 304 304 304 304 304 304 304 304 304 304 304 304 304 304 304 305 304 304 303 302 301 300 299 299 299 298 298 298 298
311 311 310 310 310 309 309 309 309 309 310 310 309 309 309 308 308 307 307 306 307 307 306 305 304 304 304 305 306 306 306 306 305 304 304 303 303 303 303 303 303 303 304 304 304 304 304 305 304 304 305 306 305 304 305 305 304 303 302 301 300 299 299 299 299 299 298 298 298
309 309 309 309 308 308 308 309 309 309 309 309 308 308 308 308 307 307 306 307 306 306 305 303 304 304 305 305 305 305 305 304 304 303 302 302 302 302 302 302 303 303 303 303 304 304 304 304 304 305 304 303 304 305 305 305 303 302 301 300 299 299 298 298 298 298 298 297 297
309 308 308 308 308 308 308 308 308 308 308 308 307 307 307 307 307 306 306 306 306 305 304 304 305 305 305 305 304 304 303 302 302 301 301 301 301 301 302 302 302 302 302 303 303 303 303 304 305 304 304 304 305 305 305 305 303 302 300 299 299 299 298 298 298 297 297 297 297
308 308 308 308 308 308 307 307 308 308 307 307 307 307 307 306 306 306 305 305 305 304 304 304 304 305 304 304 303 302 301 300 300 300 301 301 301 301 301 301 301 301 302 302 302 302 303 303 304 304 305 305 304 304 304 304 303 301 300 299 298 298 298 297 297 296 297 297 297
307 307 307 307 308 308 307 307 307 307 307 307 307 307 306 303 304 305 305 304 304 304 304 305 304 304 304 302 301 301 300 300 300 300 300 300 300 300 300 300 300 300 301 301 302 302 302 302 303 303 304 304 304 304 303 303 302 301 300 298 297 297 296 296 296 296 297 297 296
307 307 307 307 307 307 307 307 307 307 306 307 306 306 306 304 304 305 305 304 304 304 304 304 304 303 302 301 300 300 300 300 300 300 300 300 299 299 299 299 299 300 300 300 301 301 301 301 301 302 303 304 303 303 303 302 302 301 300 299 298 297 296 296 296 296 297 296 296
306 307 307 307 307 307 307 307 307 306 306 306 306 306 305 305 305 305 305 305 304 304 304 304 303 302 301 300 300 300 300 300 300 300 299 299 299 299 299 299 299 299 299 299 300 300 300 300 301 302 302 303 302 302 302 301 301 300 299 298 297 297 296 296 296 297 297 297 296
306 307 307 307 307 307 307 307 307 306 306 306 305 305 305 305 305 305 304 304 304 303 303 303 302 301 301 301 300 300 300 300 299 299 299 298 298 298 298 298 298 299 299 299 299 299 300 300 300 300 300 300 301 301 301 300 299 298 297 296 296 296 296 296 296 297 297 297 296
306 306 306 307 307 306 306 306 306 306 306 306 306 306 306 306 305 305 304 303 303 303 302 302 301 301 301 300 300 300 299 299 299 299 298 298 298 298 298 298 298 298 299 299 299 299 300 300 299 299 298 298 299 299 299 299 298 297 296 295 295 295 295 295 296 296 296 295 295
307 306 306 306 306 306 305 305 305 305 305 305 305 305 305 305 304 304 303 303 302 302 302 302 301 300 300 300 299 299 299 299 299 299 298 298 298 298 298 298 298 299 299 299 299 299 299 299 298 298 298 297 297 298 298 298 297 296 296 295 295 294 294 295 295 295 294 294 294
306 306 306 306 305 305 305 305 305 305 305 305 305 304 304 304 304 303 302 302 302 302 301 301 300 300 300 299 299 300 300 299 299 299 298 298 298 298 298 298 298 298 298 298 298 298 298 298 297 297 297 297 296 296 296 296 295 295 294 294 294 294 294 293 293 293 293 293 292
306 305 305 305 304 304 304 304 304 304 303 303 303 303 303 303 302 302 301 301 301 301 301 300 300 300 300 300 300 300 300 300 300 299 299 299 299 298 298 298 298 297 297 297 297 297 296 296 296 296 295 295 295 294 294 294 293 293 293 293 293 292 292 292 292 291 291 291 291
304 304 304 304 304 304 303 303 303 302 302 302 302 302 301 301 301 301 301 300 301 301 300 300 301 300 300 300 300 300 300 300 300 300 299 299 298 298 297 297 297 296 296 296 295 295 295 294 294 294 294 293 293 293 293 292 292 292 292 292 291 291 291 291 290 290 290 290 289
304 303 303 303 303 303 302 302 301 301 301 301 301 301 301 301 301 301 301 301 300 300 300 300 301 301 300 300 300 299 299 299 299 298 298 297 297 296 296 296 296 295 295 294 293 293 292 292 292 292 292 292 291 291 291 291 291 291 291 291 291 290 290 290 290 290 290 289 289
303 303 303 303 303 302 302 301 301 301 301 301 301 300 301 300 300 300 300 300 300 300 300 300 300 299 299 299 298 298 298 298 297 297 296 296 295 295 295 295 295 294 293 292 292 291 290 290 290 290 290 290 290 290 290 290 290 290 290 290 290 290 290 290 290 290 290 290 290
303 303 303 302 302 302 301 301 301 301 301 300 300 300 300 300 300 300 300 300 300 300 300 299 298 298 297 297 296 296 296 296 296 295 295 294 294 294 293 294 293 293 292 291 290 290 289 289 289 289 289 289 289 289 289 289 289 289 289 289 289 289 289 290 290 290 290 290 290
303 303 302 302 301 301 300 300 300 300 300 299 299 299 299 299 299 299 299 300 299 299 299 298 297 296 296 295 295 294 295 295 294 294 293 293 292 292 292 292 292 292 291 291 290 289 288 288 288 288 288 288 288 288 288 288 288 288 288 288 289 289 289 289 289 289 289 289 289
302 302 301 301 300 299 299 299 299 299 298 298 298 298 298 298 298 298 298 298 297 297 296 296 296 295 294 294 293 293 293 293 292 292 292 292 291 291 291 291 291 291 291 291 290 289 288 288 288 287 287 288 287 287 287 288 288 288 288 288 288 288 288 288 288 288 288 289 289
301 300 300 299 299 298 298 298 298 297 297 297 297 297 297 297 297 296 296 296 295 295 295 294 294 294 293 293 293 292 291 291 291 291 291 291 291 291 291 290 290 290 291 291 290 289 288 287 287 287 287 287 287 287 287 287 287 287 287 287 287 287 287 287 287 288 288 288 288
299 299 298 298 297 297 297 297 296 296 296 296 296 296 296 295 295 295 294 294 294 293 293 293 293 293 292 292 292 291 291 291 290 290 290 290 290 290 290 290 291 291 291 291 290 290 289 287 288 287 287 287 287 287 287 286 286 286 286 286 286 286 286 287 287 287 288 288 288
298 298 297 297 297 296 296 296 296 295 295 295 295 294 294 294 293 293 292 292 292 292 292 292 292 292 292 291 291 291 291 290 290 290 290 289 289 290 290 290 290 291 291 291 290 289 289 288 288 287 287 287 287 286 286 286 286 286 286 286 286 286 286 286 287 287 288 288 288
297 297 297 297 296 296 295 295 295 295 294 294 293 293 293 292 292 291 291 290 290 291 291 291 291 291 291 291 290 290 290 290 291 290 290 290 289 290 290 290 290 290 290 291 290 290 289 289 288 288 287 287 286 286 285 285 285 285 286 286 286 286 286 286 286 286 287 287 287
297 297 296 296 295 295 295 294 294 293 293 292 292 292 292 291 291 290 290 289 289 290 290 290 290 290 290 291 290 290 290 290 290 291 291 290 290 290 290 290 290 290 290 291 290 290 290 289 289 288 287 286 286 286 285 285 285 285 285 285 285 285 285 285 285 285 285 285 286
296 296 296 295 294 294 293 293 292 292 291 291 291 291 291 290 290 289 289 288 289 289 289 289 289 290 290 291 290 290 291 290 290 290 290 290 290 290 290 290 289 289 289 290 290 289 289 288 287 287 286 286 285 284 284 284 284 284 284 284 284 284 284 284 284 284 284 284 284
296 295 295 294 293 293 292 292 291 291 290 290 290 290 290 290 289 289 288 288 288 288 288 289 289 290 290 290 290 290 290 290 290 290 290 289 289 289 288 288 287 287 288 288 288 287 287 286 286 286 286 285 284 283 282 282 282 282 282 282 282 282 283 283 283 283 283 284 284
294 294 293 293 292 292 291 291 291 290 290 290 290 289 289 289 289 289 289 288 288 288 289 289 289 289 289 289 289 289 289 289 289 289 289 288 287 286 286 287 287 286 286 286 286 286 286 286 285 285 285 284 283 282 281 281 281 281 281 282 282 282 282 283 283 283 284 284 284
293 293 292 292 291 291 291 291 291 290 290 290 290 289 289 289 289 289 289 289 289 289 288 288 288 288 288 288 288 288 288 288 288 288 287 286 286 286 286 286 286 285 285 286 286 285 285 285 284 284 284 284 283 282 281 281 281 281 282 282 282 283 283 283 283 284 284 285 285
292 292 291 291 291 290 290 290 290 290 290 290 290 290 289 289 289 289 289 289 289 288 288 288 287 287 287 288 288 288 288 287 287 287 287 287 286 286 286 286 286 285 285 285 285 285 284 284 284 284 284 284 282 281 281 281 281 282 282 282 282 283 283 284 284 284 285 285 285
291 291 290 290 290 290 290 290 290 290 290 290 290 290 289 289 289 288 288 288 288 288 288 288 288 288 288 288 288 287 287 287 287 287 287 287 286 286 286 285 285 284 284 285 284 284 284 284 283 283 283 283 282 281 281 281 281 281 282 282 282 283 283 284 284 284 285 285 285
290 290 290 290 290 290 290 290 290 290 290 289 289 289 289 289 288 288 288 288 288 288 288 288 288 288 288 288 287 287 287 286 286 286 286 286 286 286 285 285 285 284 284 285 284 284 284 283 283 283 283 283 281 281 280 281 281 281 281 281 282 282 283 283 284 284 284 284 284
290 290 290 290 290 289 289 289 289 289 289 289 289 289 289 289 289 289 288 288 288 287 287 287 287 287 287 287 287 286 286 286 286 286 286 286 286 285 285 285 285 284 284 284 284 284 283 283 283 283 283 282 281 280 280 280 280 280 281 281 281 282 282 283 283 283 283 283 283
290 290 290 290 289 289 289 289 289 289 288 288 288 289 289 289 289 289 288 287 287 287 286 286 286 286 286 286 286 286 286 286 286 286 285 285 285 285 285 285 285 285 285 284 284 284 283 283 283 283 282 281 280 280 280 280 280 280 280 280 280 280 281 282 282 282 282 282 282
290 290 289 289 289 289 289 289 289 288 288 288 288 288 288 288 288 288 288 287 286 286 286 286 286 286 286 286 286 286 287 287 286 286 285 285 285 285 285 285 285 285 285 284 284 284 283 283 283 283 282 280 280 279 279 279 279 279 279 279 279 279 280 280 280 281 281 281 282
289 289 289 289 289 289 289 289 289 289 288 288 288 288 288 288 288 288 287 287 287 286 286 286 286 286 286 286 286 286 287 287 287 286 286 285 285 285 285 285 285 285 285 285 284 284 283 283 283 282 282 280 280 279 279 279 279 278 278 278 278 278 278 279 279 279 279 280 282
289 289 289 289 290 289 289 289 289 288 288 288 288 287 287 287 287 287 288 287 287 287 286 286 286 287 287 286 286 286 286 286 286 286 286 286 286 286 286 285 285 285 286 287 286 284 283 283 283 282 282 280 280 279 279 279 278 278 278 278 277 277 277 278 278 278 278 279 280
290 290 290 290 290 290 289 288 288 288 288 288 287 287 287 287 287 287 288 287 287 287 287 286 287 287 287 286 286 285 285 285 285 286 286 286 286 287 287 286 286 286 286 287 286 285 284 283 283 282 282 280 279 279 279 278 278 278 277 277 277 277 277 277 277 277 278 278 278
Wind_Speed
2 3 2 1 1 2 2 3 3 3 4 5 5 6 6 6 6 6 5 5 4 4 3 3 3 4 4 6 7 7 7 7 7 7 7 8 9 10 11 12 12 11 11 11 10 10 9 10 9 8 7 6 7 7 7 6 6 6 6 6 6 6 6 7 6 6 6 6 4
4 4 3 1 1 2 3 3 3 4 4 4 5 6 6 6 5 5 5 4 3 3 3 3 3 4 5 7 7 6 6 6 6 6 7 9 10 12 12 12 11 11 10 11 10 9 9 10 9 9 8 7 7 8 8 8 8 8 8 8 7 6 6 6 5 5 5 5 4
4 4 3 3 3 3 4 4 4 5 5 5 5 5 5 5 5 4 4 3 3 3 3 3 3 4 5 6 5 4 4 4 5 7 8 9 11 11 11 10 10 10 11 10 10 9 9 10 9 9 8 8 8 8 8 9 8 8 8 9 6 5 4 4 4 4 4 4 5
4 3 3 4 5 5 6 5 6 7 7 5 5 5 4 4 4 4 4 3 3 3 3 3 3 4 4 4 4 4 4 5 6 7 8 9 10 10 10 10 10 11 11 10 10 11 11 11 9 9 8 9 10 9 8 7 8 8 8 7 5 4 4 3 3 3 3 4 5
3 3 3 4 6 7 7 7 8 8 7 6 5 4 4 4 4 4 3 3 3 4 4 4 3 3 3 3 4 5 6 6 7 7 7 8 8 8 9 10 10 11 11 11 11 11 11 12 9 8 8 8 7 7 8 8 9 9 8 6 5 4 4 3 3 3 3 4 4
6 6 7 7 8 8 7 8 9 9 8 6 6 6 5 4 4 4 4 4 3 3 3 3 2 2 3 4 5 6 7 7 6 6 7 7 8 8 9 11 11 11 11 12 12 12 12 11 9 7 6 6 7 7 8 9 10 10 9 7 6 4 4 4 3 3 4 4 5
11 11 11 11 10 9 8 8 8 8 7 6 7 7 6 5 5 5 4 3 3 2 2 2 2 3 4 5 6 7 7 6 6 6 7 7 8 9 10 11 12 13 13 13 13 13 12 10 7 6 5 5 4 4 7 9 11 11 9 7 5 4 4 4 4 3 4 5 5
12 13 13 13 12 11 10 9 9 8 6 5 6 7 7 7 6 4 3 2 2 2 2 2 4 5 6 6 7 6 6 6 6 6 7 7 9 10 11 12 13 13 13 14 14 13 12 9 6 5 5 4 3 3 6 10 12 12 11 9 6 5 4 4 4 4 3 4 5
12 12 12 12 11 10 10 10 9 8 7 6 6 6 6 5 4 3 2 2 2 3 4 4 6 7 7 7 6 6 6 6 7 7 8 8 10 11 12 12 12 13 13 13 13 14 13 9 5 4 4 3 2 3 5 10 13 14 13 10 7 5 4 4 3 3 4 4 5
12 12 11 10 10 10 10 9 9 8 7 6 6 5 4 2 1 2 3 3 4 4 5 6 7 7 7 6 6 6 6 6 8 9 10 11 12 13 13 13 13 13 13 12 12 13 12 9 6 5 4 2 3 4 7 12 14 15 13 8 7 6 6 5 4 5 5 6 7
12 11 11 10 10 11 10 9 8 7 6 5 4 3 2 2 3 4 4 5 5 6 6 7 6 6 6 5 6 6 7 7 8 10 11 12 13 14 14 14 15 15 15 14 12 11 9 7 5 4 3 2 3 6 9 12 13 13 12 9 9 9 9 7 6 6 6 7 7
11 11 11 11 11 11 10 9 7 6 5 5 4 4 4 4 5 5 6 5 5 6 6 6 5 6 6 6 6 7 8 9 10 11 12 13 14 15 16 16 16 16 16 16 13 11 8 6 5 5 5 4 4 5 8 11 11 11 11 11 10 10 10 9 7 7 6 6 6
11 11 11 11 12 11 10 9 7 6 5 6 6 6 6 6 6 6 6 6 6 6 6 7 7 6 7 7 8 8 9 10 11 11 12 13 14 15 16 16 16 16 16 15 13 11 10 8 7 7 7 5 5 6 8 10 10 11 11 10 9 8 8 7 7 6 6 6 6
11 11 11 11 11 11 10 9 7 6 6 7 7 7 7 7 7 7 7 8 8 8 8 8 7 7 7 8 9 10 10 11 12 13 14 15 15 16 16 15 15 15 14 13 12 11 11 9 9 9 8 7 6 6 7 8 9 9 9 9 8 8 8 7 7 6 6 6 5
11 11 11 11 11 10 9 9 7 7 7 8 9 9 8 8 8 8 8 8 9 9 8 8 8 8 8 9 10 11 12 13 14 15 15 16 16 15 14 14 14 13 13 12 10 9 8 8 8 8 8 7 7 6 6 7 8 9 9 9 9 9 9 9 8 8 7 6 5
11 12 12 11 11 10 9 9 8 8 9 10 11 11 10 9 9 9 9 9 9 8 9 10 10 10 10 11 12 13 14 14 15 15 15 15 15 14 13 13 12 12 11 10 9 7 7 7 7 8 9 9 8 8 9 10 10 11 11 12 11 11 11 11 11 10 9 8 7
12 12 12 12 12 11 11 11 10 10 11 12 12 12 11 10 10 10 10 11 10 11 12 13 12 12 12 12 13 13 13 13 13 14 14 14 14 13 13 12 12 12 11 11 10 10 10 11 11 11 11 11 11 11 11 11 11 11 12 12 11 11 11 11 11 10 10 9 8
12 12 13 13 13 13 13 13 12 12 12 13 12 12 12 11 12 11 12 12 13 13 14 14 12 12 12 12 11 11 10 11 12 12 12 12 13 13 13 14 13 13 13 13 13 14 14 14 14 13 12 12 12 12 12 11 11 11 11 11 10 10 10 9 9 8 8 8 8
13 13 13 13 13 13 13 13 13 13 13 13 13 13 13 13 13 13 12 13 13 13 12 11 10 10 10 11 10 10 9 10 11 12 12 13 13 14 14 15 15 15 15 15 15 15 15 14 14 13 13 12 12 12 11 11 10 10 10 9 9 8 8 7 7 6 6 6 7
13 13 13 13 13 14 13 13 13 13 13 13 13 13 13 13 13 13 12 12 11 10 9 9 9 9 9 10 10 10 9 8 10 11 12 12 13 14 14 14 14 14 14 14 14 14 14 13 13 13 13 12 12 11 11 10 9 9 8 7 7 7 7 7 7 6 6 7 7
13 13 13 14 14 14 14 14 14 14 14 13 14 13 13 12 12 11 10 9 9 8 8 8 9 9 9 9 10 9 8 7 9 10 10 11 12 13 13 12 12 12 11 11 11 11 11 11 11 11 10 10 10 10 9 8 8 8 7 6 6 6 7 7 7 7 7 8 8
13 14 14 14 15 15 15 14 14 14 14 13 13 12 11 11 10 9 8 7 7 7 7 8 9 9 9 9 9 9 8 7 8 9 9 10 10 11 11 10 10 10 9 8 8 8 8 8 8 8 8 7 8 8 7 7 6 6 6 6 6 7 7 7 7 7 7 8 8
14 14 14 14 14 14 14 14 13 13 12 12 11 11 10 9 9 8 7 7 7 7 8 8 8 8 9 8 9 9 8 8 8 9 9 9 9 9 9 8 8 7 6 5 5 5 5 5 5 5 5 5 6 6 6 6 6 6 7 7 8 8 8 8 8 8 8 8 8
15 14 13 12 13 13 13 12 12 11 11 10 10 10 9 9 8 8 8 9 9 9 8 7 7 7 8 8 8 8 8 8 8 8 8 8 7 7 7 6 5 4 3 2 1 1 1 1 2 3 3 3 4 5 5 6 6 7 8 9 9 9 10 10 10 10 10 10 9
14 13 12 11 11 11 11 11 11 10 10 10 9 9 9 9 9 9 9 9 9 9 8 7 7 6 6 6 7 6 6 7 7 7 7 7 6 6 5 3 3 2 2 1 1 2 2 1 0 1 2 2 3 4 5 6 7 7 8 9 10 10 10 11 11 11 11 11 11
11 11 11 10 10 10 11 11 11 11 10 10 10 9 9 9 8 8 8 8 8 7 7 6 5 5 4 5 5 5 5 5 5 6 6 6 6 5 4 3 3 3 3 3 2 3 3 3 1 0 1 2 3 4 5 5 6 7 8 9 9 10 10 11 11 11 11 11 11
9 9 10 10 10 11 11 11 11 11 10 10 10 9 8 8 7 7 7 7 7 6 6 5 4 4 4 4 5 5 5 4 4 4 5 5 6 6 5 4 4 4 4 4 3 3 3 2 1 2 3 3 4 4 5 5 6 7 8 8 9 9 10 11 11 11 11 11 11
8 9 10 11 11 11 11 11 10 10 10 9 9 8 7 7 7 7 6 6 6 6 5 4 4 3 3 4 5 5 6 5 5 4 4 5 6 6 6 5 5 5 5 3 1 2 3 4 4 5 5 4 4 4 4 5 6 7 7 8 8 9 10 10 10 11 11 12 12
9 10 11 11 11 10 10 10 9 9 8 8 8 7 7 7 6 6 6 6 6 5 4 3 3 3 3 3 4 5 5 5 5 4 4 5 6 6 6 6 7 5 4 5 6 7 7 7 6 6 6 5 4 3 4 4 5 6 7 7 8 9 10 10 10 10 11 11 11
11 11 11 10 9 9 9 8 8 8 7 7 7 7 8 7 7 6 5 5 5 5 4 4 4 4 4 5 4 4 4 4 4 4 4 5 5 6 7 7 7 5 7 10 9 9 8 7 6 7 7 7 4 4 4 4 5 5 6 6 8 9 10 10 11 11 11 10 11
12 11 10 9 8 8 7 7 7 7 7 6 7 7 8 8 7 6 5 5 5 4 5 5 5 6 6 5 5 4 4 4 4 4 4 4 5 5 7 9 7 5 8 9 9 8 7 6 6 6 6 7 4 4 4 4 5 6 6 7 8 9 10 10 10 10 11 11 11
11 10 9 8 7 7 7 7 6 6 7 7 7 7 7 8 7 7 6 5 5 5 5 5 6 6 6 6 5 5 5 4 4 4 4 4 5 6 7 10 7 6 8 7 7 7 6 6 5 5 6 6 4 4 4 5 6 6 7 8 9 10 10 9 9 10 11 12 11
9 8 8 7 7 6 6 6 6 6 6 7 7 7 7 8 7 7 6 5 4 4 5 5 6 6 6 6 5 5 5 4 4 4 4 5 5 6 7 9 6 5 8 6 6 6 5 5 4 4 5 5 4 4 5 6 6 6 7 8 9 10 11 11 11 11 11 12 11
7 7 6 6 6 5 5 5 6 6 6 6 7 7 7 7 7 7 6 5 4 4 4 5 5 5 6 5 5 5 4 4 4 5 6 6 6 6 7 8 4 4 7 5 5 5 4 3 3 4 5 5 4 5 5 7 7 7 8 9 10 10 11 11 11 11 11 11 10
6 5 5 5 5 5 5 6 6 6 7 7 7 6 6 6 7 6 6 5 4 4 4 5 5 5 5 5 5 4 5 5 6 6 6 6 6 6 6 8 5 3 7 4 4 4 3 3 3 4 5 5 4 4 5 6 7 8 9 10 11 11 11 11 11 11 11 11 11
4 4 4 5 5 6 6 6 7 7 7 7 7 6 6 6 6 6 5 5 5 5 5 5 6 6 6 6 5 5 5 6 6 5 5 5 5 5 6 7 6 1 5 4 4 3 2 2 3 4 5 4 3 4 4 5 6 7 8 10 10 11 11 11 11 11 11 11 10
4 4 4 5 6 6 6 6 6 7 7 7 7 6 6 6 6 5 5 4 5 6 7 7 7 8 8 7 6 6 5 6 5 5 5 5 5 5 6 6 6 3 2 4 3 3 2 2 3 4 4 3 3 3 4 4 4 6 7 8 9 9 10 10 10 11 11 11 11
4 4 4 5 5 6 6 6 6 6 7 7 7 7 6 6 5 5 5 4 5 6 7 7 7 7 7 7 7 7 7 6 5 5 5 5 5 6 6 6 6 6 3 2 3 3 1 1 3 3 3 2 2 3 3 4 4 5 6 6 7 7 8 8 8 8 9 11 13
4 4 5 5 5 6 6 6 6 7 7 7 7 7 8 7 6 5 5 5 5 6 7 7 7 7 7 7 7 7 7 7 6 6 5 5 6 6 6 6 6 6 5 3 3 3 2 0 2 2 2 2 2 3 3 3 4 5 5 5 6 6 7 7 7 7 8 10 14
3 4 5 5 5 6 6 6 6 6 7 7 8 8 8 8 7 6 6 6 6 7 7 7 8 8 8 7 6 6 6 7 7 6 5 5 6 6 6 5 5 6 6 4 3 3 3 1 1 2 3 3 3 3 3 3 4 5 5 5 5 5 6 6 6 7 7 9 12
3 4 5 5 5 6 6 7 7 7 7 8 8 8 7 7 7 7 7 7 8 8 8 8 9 9 9 7 6 5 6 6 7 6 6 5 5 5 5 5 5 5 5 4 3 3 3 2 1 2 3 3 3 3 3 3 4 5 5 6 6 6 6 6 6 7 7 8 8
Wind_Direction
292 287 289 305 312 306 298 293 292 293 294 295 296 296 294 291 290 289 290 291 295 304 322 343 355 3 9 14 14 11 7 2 354 343 329 314 303 295 290 284 281 281 283 286 288 288 287 283 279 274 267 262 260 259 257 253 248 245 242 241 242 243 243 243 242 240 238 238 238
276 278 284 299 292 285 284 286 291 296 299 301 300 299 297 295 295 294 295 297 308 326 345 0 9 14 15 16 15 10 1 349 332 318 305 297 291 287 283 281 283 287 290 291 290 287 284 279 275 270 264 259 256 255 254 252 250 250 250 249 248 246 244 242 242 243 244 246 246
282 286 290 291 290 295 299 303 307 308 308 307 306 305 305 306 307 308 310 318 333 348 2 13 16 18 16 12 6 355 337 315 302 295 291 287 283 282 283 287 292 294 294 292 288 284 279 275 271 266 261 256 252 252 252 253 254 257 259 256 253 247 243 242 243 247 250 252 251
281 287 292 299 312 318 323 325 321 318 314 310 306 306 308 312 316 322 330 343 354 5 14 18 13 13 9 357 334 315 298 287 285 285 284 283 283 287 292 298 299 297 294 290 286 281 278 275 271 266 260 256 255 254 255 259 263 265 265 260 253 246 241 241 243 246 249 251 252
291 306 322 333 339 340 338 334 328 322 316 309 305 300 298 301 309 322 337 354 10 18 19 13 2 352 336 315 300 292 287 283 283 284 287 290 295 300 304 304 301 297 294 290 286 282 279 275 271 266 264 266 265 265 266 270 269 265 260 254 247 239 235 235 237 240 244 249 251
349 348 347 346 346 346 343 336 329 322 317 312 308 303 302 309 328 346 359 7 15 15 10 358 338 312 292 284 283 284 284 286 289 296 303 308 309 309 307 304 301 298 295 293 288 283 278 274 272 272 274 276 277 280 281 280 270 262 255 248 241 236 232 232 234 236 241 248 256
349 345 342 340 342 342 339 332 325 320 317 317 315 320 330 347 4 13 15 15 7 355 337 309 287 279 279 280 281 283 287 294 303 310 315 314 311 308 304 301 297 294 292 290 288 285 281 277 282 285 285 279 279 287 288 282 273 267 261 254 248 242 238 238 238 239 243 251 262
345 342 340 337 337 335 331 326 322 319 320 324 330 343 357 9 14 14 8 355 330 305 287 277 277 278 280 282 285 290 298 308 314 316 314 309 304 300 296 291 286 284 283 284 284 283 282 282 286 286 283 280 277 276 275 273 271 270 267 263 260 255 250 252 252 250 250 254 261
343 340 338 334 332 328 324 321 320 322 326 334 346 1 13 19 10 354 331 307 286 281 280 283 284 284 285 288 297 307 316 319 315 311 306 301 296 292 288 283 280 279 278 277 277 276 276 274 270 266 265 266 264 267 267 266 265 265 265 265 265 266 266 268 268 265 259 253 252
340 336 332 328 324 321 319 318 320 324 332 344 356 10 22 26 337 297 283 277 275 278 282 286 289 293 298 308 319 323 321 315 308 303 300 296 293 290 287 284 282 280 278 274 271 270 270 268 262 255 253 262 279 280 272 264 262 265 268 273 279 281 281 279 277 273 266 258 249
335 331 326 322 319 318 317 318 320 326 335 346 348 344 323 272 262 264 267 271 276 280 285 291 299 310 320 327 326 320 312 306 302 300 298 296 294 292 290 289 287 285 283 280 276 274 272 274 276 279 285 297 299 286 275 265 267 272 278 284 284 282 280 279 277 275 272 269 266
330 326 323 320 320 320 320 320 321 324 326 326 316 302 287 275 274 275 278 284 287 292 299 309 323 330 330 325 317 311 306 303 303 301 300 299 298 296 295 293 292 291 290 289 288 288 290 298 307 310 308 306 301 287 278 273 276 280 282 281 278 277 279 283 286 289 295 305 308
327 323 322 321 322 321 320 320 319 318 316 312 306 300 297 296 299 304 310 316 320 324 328 332 335 332 325 316 310 308 307 307 307 307 305 304 301 299 298 298 298 298 299 299 303 308 315 324 326 324 320 319 309 293 286 283 288 289 290 289 290 294 300 306 314 323 332 338 333
324 322 321 321 321 320 319 319 320 321 320 320 319 319 321 324 332 339 342 341 341 338 336 334 329 323 317 314 314 314 315 315 315 312 309 305 302 301 301 302 305 308 311 313 320 327 332 336 334 331 327 324 316 307 301 304 310 311 311 311 317 322 328 336 344 347 346 339 328
323 322 320 319 319 320 323 327 331 337 341 341 343 344 346 348 353 355 354 347 342 338 334 329 325 322 321 325 328 328 327 325 321 315 310 305 303 304 308 313 319 323 326 327 332 338 344 343 339 336 334 333 332 336 346 354 352 348 344 342 342 343 348 354 357 356 351 343 336
321 321 320 320 324 331 339 345 350 355 357 358 358 358 358 357 357 356 354 349 345 342 339 336 333 333 336 340 341 338 334 329 322 316 311 309 311 317 324 331 337 340 341 340 345 353 1 1 357 356 356 358 1 11 20 22 16 10 5 1 359 359 1 5 3 0 357 353 350
321 322 324 328 337 347 357 1 2 3 3 3 1 1 0 359 357 356 356 356 355 353 351 348 347 346 346 346 345 341 336 330 325 322 321 324 330 337 345 352 357 360 1 1 9 16 21 22 18 16 15 14 16 22 27 29 24 18 13 9 7 8 10 12 8 4 0 357 354
324 327 332 339 350 0 6 8 6 4 3 2 1 0 0 1 359 359 360 2 3 1 357 354 353 352 350 349 349 347 344 340 339 340 343 347 353 358 3 6 11 15 17 18 23 26 27 26 23 20 19 20 20 22 25 26 23 18 14 10 8 9 10 12 9 4 359 353 347
330 335 342 351 0 6 9 7 5 2 0 359 360 360 0 2 2 2 3 4 5 3 359 356 356 357 359 0 2 2 359 356 356 358 1 4 7 10 12 13 18 22 24 23 26 26 26 24 21 19 18 19 19 18 18 19 17 13 10 7 4 2 0 358 355 348 340 332 325
337 344 352 1 6 8 6 4 2 0 359 359 0 0 1 2 4 5 5 4 3 2 1 3 7 11 14 16 16 15 12 10 8 8 9 10 14 15 16 17 21 25 27 25 25 25 23 20 18 16 15 15 13 12 10 9 7 4 1 357 351 345 338 332 327 321 314 308 303
347 356 3 8 9 7 4 1 0 0 0 1 2 2 2 3 5 7 7 5 3 5 11 19 22 23 23 23 22 20 18 17 14 14 14 14 17 18 19 19 22 25 28 27 25 24 21 18 15 13 11 9 6 4 1 358 354 350 345 337 328 320 315 311 307 303 300 297 294
1 7 10 11 9 6 4 2 2 3 4 4 5 4 4 6 8 9 10 8 10 15 23 30 28 26 24 24 22 20 18 19 18 18 18 17 17 18 19 18 19 21 23 24 24 22 19 16 13 10 7 4 359 354 350 346 340 333 325 315 309 304 301 296 292 289 286 285 284
14 15 14 12 9 7 5 4 6 8 9 9 9 8 8 9 11 13 16 17 19 23 27 31 27 24 22 22 22 20 18 17 16 16 16 16 14 14 14 14 14 12 11 14 19 19 17 13 9 6 2 356 349 343 337 332 326 321 315 311 307 304 301 297 293 289 286 283 282
20 19 17 13 11 10 9 10 12 14 15 15 14 13 12 13 15 17 20 21 21 22 23 25 24 20 17 17 19 19 16 13 11 9 8 8 5 4 3 3 0 354 350 356 23 37 30 16 2 356 350 343 337 332 327 325 322 318 315 313 311 309 306 303 300 297 294 290 287
23 22 22 20 17 16 16 17 20 21 20 19 18 16 15 14 15 16 17 17 16 15 14 15 17 14 10 8 11 11 10 7 2 359 356 354 351 348 345 339 327 312 299 291 184 167 162 162 178 329 329 329 327 326 324 322 319 317 315 313 310 307 305 302 299 296 292 289 284
27 28 29 28 24 22 22 22 23 22 21 18 16 14 13 12 11 10 10 8 7 4 1 0 4 2 356 354 355 355 356 357 351 346 343 339 335 330 323 312 303 292 282 273 210 182 171 168 160 166 328 326 327 327 325 322 319 315 312 308 305 302 299 297 294 291 287 283 280
33 36 36 32 26 23 21 20 19 18 16 13 10 7 5 3 1 0 359 357 354 351 347 345 345 343 339 342 341 342 342 342 338 334 331 327 322 318 313 306 302 295 284 271 223 188 163 138 88 28 357 342 335 331 327 321 316 312 308 304 301 298 296 295 294 293 292 292 291
33 37 38 33 26 21 18 16 15 12 8 4 0 356 352 351 351 351 350 347 344 342 339 336 333 333 334 334 333 333 332 330 326 322 319 316 314 311 308 304 301 301 299 291 199 127 98 69 45 27 11 353 341 332 324 318 314 311 309 306 304 304 303 304 305 307 308 309 309
28 32 35 34 26 19 14 12 8 4 359 354 349 345 341 341 342 343 343 341 340 338 335 330 328 328 328 324 322 322 320 318 316 313 310 307 309 307 305 302 302 319 1 48 74 77 69 56 44 32 21 6 350 334 324 318 316 314 312 310 309 309 309 309 309 309 309 308 307
28 29 31 33 26 17 10 5 0 355 350 346 342 339 336 334 335 336 336 336 336 334 330 326 325 323 321 317 314 310 305 300 299 298 299 301 302 306 308 308 314 2 58 75 76 74 69 60 49 37 25 10 352 335 323 318 315 312 309 306 304 302 301 300 299 298 297 296 296
32 29 27 28 23 13 4 357 351 347 343 340 338 336 333 330 329 329 331 331 329 327 324 322 320 317 314 311 305 297 290 286 286 289 295 302 307 314 317 316 338 40 79 86 81 77 72 63 50 36 22 7 349 331 319 313 309 305 301 297 295 294 292 291 290 290 291 292 295
34 29 24 22 15 6 356 348 344 340 336 334 333 332 330 327 325 325 324 323 321 320 318 316 314 310 305 300 293 286 281 279 284 293 304 315 322 329 330 323 356 62 96 95 88 82 74 64 48 32 15 358 338 322 313 307 303 300 296 292 290 289 289 290 290 292 295 299 303
33 27 21 14 5 356 347 341 336 332 329 327 328 328 327 325 323 321 319 316 313 310 308 304 302 298 293 288 284 282 284 290 305 318 327 333 337 342 339 327 358 78 109 106 96 89 80 68 48 26 7 351 337 325 318 313 308 303 300 298 296 296 296 298 300 303 306 309 311
31 24 15 5 355 346 339 333 330 327 324 323 324 325 324 321 318 315 312 307 301 295 292 288 286 284 282 281 284 294 311 331 341 346 348 349 348 347 341 326 351 91 117 119 105 98 91 76 49 25 9 358 348 335 327 321 316 312 310 309 308 308 309 310 312 314 316 319 320
26 16 6 355 346 339 333 330 329 327 324 322 320 318 314 310 308 305 300 297 292 289 286 284 284 286 291 298 312 330 345 354 354 354 354 354 348 342 333 318 342 82 120 134 122 116 108 87 52 30 19 10 356 340 330 324 320 318 317 316 315 315 316 318 320 323 325 327 329
18 6 354 345 339 335 332 330 328 325 321 317 312 308 302 299 297 295 294 296 300 304 307 309 313 318 325 332 340 347 350 349 349 349 349 348 339 332 322 311 330 53 137 158 151 146 132 100 61 40 28 17 358 340 330 326 322 321 320 319 319 320 322 325 328 329 330 330 331
6 355 345 339 335 332 329 326 322 317 313 310 307 302 298 296 294 296 302 311 322 327 331 333 335 337 339 341 340 339 338 338 339 340 340 338 331 325 318 311 317 308 186 167 180 179 156 107 72 52 37 18 356 340 332 326 323 322 321 321 321 324 327 330 330 329 328 328 327
355 348 342 335 330 326 321 316 313 311 310 310 309 308 307 307 308 313 322 331 335 336 336 334 333 333 333 335 334 334 335 336 336 336 335 332 329 326 322 319 313 311 304 195 206 206 194 102 68 57 43 16 357 342 334 326 322 321 321 322 323 327 329 330 328 326 324 323 321
349 343 335 327 321 315 311 309 310 312 314 317 319 321 323 324 326 331 335 338 336 333 330 327 325 325 326 329 332 335 338 339 338 337 334 331 330 330 328 324 314 311 308 275 228 223 232 2 44 39 27 9 358 347 335 325 320 319 319 322 324 326 327 326 324 321 319 318 317
335 327 321 316 311 309 310 313 320 323 326 327 329 330 330 331 332 335 337 337 335 331 328 324 322 323 324 328 332 337 341 341 339 336 333 329 326 325 323 318 306 300 295 277 232 220 226 268 356 9 8 4 358 348 334 323 318 317 319 323 326 326 326 324 322 319 316 314 315
313 308 306 306 307 312 319 328 334 336 335 334 333 332 331 331 332 335 338 338 336 333 330 327 325 326 328 333 336 340 341 339 335 332 329 324 318 314 312 308 301 298 297 294 240 205 202 227 310 358 8 9 355 341 328 319 315 316 320 325 327 327 324 321 319 316 313 310 308